• Join FlightAware (Why Join?)
  • Login
  • US Flag GB Flag 
17:42 EDT


 

Airport Tracker/Info


-or-


 

Live Flight TrackerFlight Track Log ✈ SWA2130 ✈ 21-Apr-2013 ✈ KSFO - KLAX

Flight Track Log - Related Links

Times and Time Zones

All times are in EDT time to prevent confusion due to time zone crossing. See the SWA2130 flight status page for this flight to view local times or setup timezone preferences in your user account.

Time Position Orientation Groundspeed Altitude Reporting Facility
EDT Latitude Longitude Course Direction KTS MPH feet Rate Location/Type
19:33 37.6333 -122.3667 360° North 158 182 1,100  Level Northern Cal TRACON
19:34 37.6603 -122.3667 360° North 178 205 1,800 2,460 Climbing Oakland Center
19:35 37.6997 -122.4011 325° Northwest 228 262 5,200 3,420 Climbing Oakland Center
19:35 37.6833 -122.4333 237° Southwest 248 285 6,600 3,480 Climbing Northern Cal TRACON
19:36 37.6000 -122.4500 189° South 302 348 9,900 3,000 Climbing Northern Cal TRACON
19:37 37.5469 -122.4378 170° South 308 354 11,800 2,940 Climbing Oakland Center
19:38 37.4633 -122.3861 154° Southeast 359 413 15,000 3,000 Climbing Oakland Center
19:39 37.4106 -122.2781 122° Southeast 372 428 18,000 2,760 Climbing Oakland Center
19:40 37.3347 -122.1789 134° Southeast 391 450 20,700 2,640 Climbing Oakland Center
19:41 37.2572 -122.0719 132° Southeast 410 472 23,500 2,460 Climbing Oakland Center
19:42 37.1758 -121.9633 133° Southeast 425 489 25,800 2,100 Climbing Oakland Center
19:43 37.0928 -121.8494 132° Southeast 439 505 27,800 2,040 Climbing Oakland Center
19:44 36.9858 -121.7144 135° Southeast 454 522 30,100 2,100 Climbing Oakland Center
19:45 36.8964 -121.5950 133° Southeast 469 540 32,200 2,100 Climbing Oakland Center
19:46 36.8111 -121.4792 133° Southeast 457 526 34,500 1,800 Climbing Oakland Center
19:47 36.7350 -121.3786 133° Southeast 447 514 35,900 1,200 Climbing Oakland Center
19:48 36.6300 -121.2414 134° Southeast 455 524 37,000 480 Climbing Oakland Center
19:49 36.5431 -121.1261 133° Southeast 457 526 37,000  Level Oakland Center
19:50 36.4556 -121.0133 134° Southeast 453 521 37,000  Level Oakland Center
19:51 36.3683 -120.9006 134° Southeast 453 521 37,000  Level Oakland Center
19:52 36.2819 -120.7864 133° Southeast 453 521 37,000  Level Oakland Center
19:53 36.1933 -120.6728 134° Southeast 456 525 37,000  Level Oakland Center
19:54 36.1050 -120.5617 135° Southeast 452 520 37,000  Level Oakland Center
19:55 36.0158 -120.4442 133° Southeast 467 537 37,000  Level Oakland Center
19:56 35.9278 -120.3339 135° Southeast 453 521 37,000  Level Oakland Center
19:57 35.8381 -120.2189 134° Southeast 459 528 37,000  Level Oakland Center
19:58 35.7303 -120.0825 134° Southeast 459 528 37,000  Level Oakland Center
19:59 35.6381 -119.9703 135° Southeast 461 531 37,000  Level Oakland Center
20:00 35.5331 -119.8786 145° Southeast 458 527 37,000  Level Oakland Center
20:01 35.4267 -119.7894 146° Southeast 458 527 37,000  Level Oakland Center
20:02 35.3217 -119.6978 145° Southeast 460 529 37,000 -300 Level Oakland Center
20:03 35.2153 -119.6078 145° Southeast 462 532 36,500 -1,980 Descending Oakland Center
20:05 35.0883 -119.4986 145° Southeast 467 537 32,600 -3,000 Descending Los Angeles Center
20:06 34.9811 -119.4061 145° Southeast 471 542 29,900 -2,460 Descending Los Angeles Center
20:07 34.8756 -119.3175 145° Southeast 465 535 27,600 -1,980 Descending Los Angeles Center
20:08 34.7953 -119.2506 146° Southeast 448 516 25,900 -2,280 Descending Los Angeles Center
20:09 34.6608 -119.1381 145° Southeast 422 486 22,900 -2,280 Descending Los Angeles Center
20:10 34.5831 -119.0708 145° Southeast 409 471 21,200 -1,980 Descending Los Angeles Center
20:11 34.4769 -118.9828 146° Southeast 383 441 18,800 -2,160 Descending Los Angeles Center
20:12 34.3883 -118.9092 146° Southeast 384 442 16,700 -2,040 Descending Los Angeles Center
20:13 34.2936 -118.8583 156° South 370 426 14,600 -2,040 Descending Los Angeles Center
20:14 34.1978 -118.8233 163° South 361 415 12,500 -1,800 Descending Los Angeles Center
20:15 34.1047 -118.7889 163° South 353 406 10,900 -1,260 Descending Los Angeles Center
20:16 34.0339 -118.7131 138° Southeast 306 352 10,000 -540 Descending Los Angeles Center
20:17 34.0247 -118.6133 96° East 301 346 9,900 -840 Descending Los Angeles Center
20:18 34.0153 -118.5131 96° East 281 323 8,300 -1,380 Descending Los Angeles Center
20:19 34.0153 -118.4119 90° East 267 307 6,800 -1,620 Descending Los Angeles Center
20:20 34.0247 -118.3231 83° East 265 305 4,700 -1,920 Descending Los Angeles Center
20:21 34.0164 -118.2519 98° East 239 275 2,900 -1,260 Descending Los Angeles Center
20:22 33.9772 -118.2692 200° South 174 200 2,200 -780 Descending Los Angeles Center
20:23 33.9603 -118.3256 250° West 158 182 1,300 -780 Descending Los Angeles Center
20:24 33.9567 -118.3697 264° West 144 166 600 -600 Descending Los Angeles Center
20:26 33.9517 -118.4164 263° West 137 158 100 -540 Descending Los Angeles Center
20:27 33.9425 -118.4081 228° Southwest  Level Estimated
20:34 33.9425 -118.4081 228° Southwest  Level Estimated